When you browse on this site, cookies collect data to enhance your experience and personalize the content and advertising you see.
Visit our Privacy Policy to learn more. By continuing to use the site, you agree to this use of cookies and data.
  • In Lithuania
  • List of Countries
  • For 7 days
  • Water Temperature
  • Satellite Maps
  • Weather Map
  • Weather Widgets
  • user-avatar
    Login

    Hourly Weather Homichicy

    Today, 24 April, Wednesday

    Time Temperature Precipitation Wind Pressure Humidity
    00:00 +9°C° 0 mm 5 mps 755 mmHg 55%
    01:00 +9°C° 0 mm 5 mps 755 mmHg 57%
    02:00 +9°C° 0 mm 5 mps 755 mmHg 58%
    03:00 +8°C° 0 mm 5 mps 755 mmHg 59%
    04:00 +8°C° 0 mm 5 mps 755 mmHg 60%
    05:00 +8°C° 0 mm 5 mps 755 mmHg 61%
    06:00 +9°C° 0 mm 6 mps 755 mmHg 57%
    07:00 +10°C° 0 mm 7 mps 755 mmHg 53%
    08:00 +12°C° 0 mm 8 mps 755 mmHg 48%
    09:00 +13°C° 0 mm 8 mps 755 mmHg 45%
    10:00 +15°C° 0 mm 9 mps 755 mmHg 43%
    11:00 +16°C° 0 mm 9 mps 755 mmHg 40%
    12:00 +16°C° 0 mm 8 mps 755 mmHg 40%
    13:00 +16°C° 0 mm 8 mps 755 mmHg 40%
    14:00 +17°C° 0 mm 8 mps 755 mmHg 39%
    15:00 +17°C° 0 mm 7 mps 754 mmHg 41%
    16:00 +17°C° 0 mm 7 mps 754 mmHg 42%
    17:00 +17°C° 0 mm 7 mps 754 mmHg 44%
    18:00 +15°C° 0 mm 6 mps 754 mmHg 47%
    19:00 +14°C° 0 mm 5 mps 753 mmHg 51%
    20:00 +13°C° 0 mm 5 mps 753 mmHg 55%
    21:00 +12°C° 0 mm 5 mps 754 mmHg 57%
    22:00 +12°C° 0 mm 5 mps 754 mmHg 59%
    23:00 +10°C° 0 mm 5 mps 754 mmHg 60%

    Tomorrow, 25 April, Thursday

    Time Temperature Precipitation Wind Pressure Humidity
    00:00 +10°C° 0 mm 5 mps 754 mmHg 62%
    01:00 +9°C° 0 mm 5 mps 754 mmHg 64%
    02:00 +9°C° 0 mm 5 mps 753 mmHg 65%
    03:00 +9°C° 0 mm 5 mps 753 mmHg 66%
    04:00 +8°C° 0 mm 5 mps 753 mmHg 67%
    05:00 +8°C° 0 mm 5 mps 753 mmHg 68%
    06:00 +9°C° 0 mm 5 mps 753 mmHg 67%
    07:00 +10°C° 0 mm 6 mps 753 mmHg 65%
    08:00 +11°C° 0 mm 6 mps 753 mmHg 64%
    09:00 +14°C° 0 mm 6 mps 753 mmHg 61%
    10:00 +16°C° 0 mm 6 mps 753 mmHg 58%
    11:00 +19°C° 0 mm 6 mps 752 mmHg 55%
    12:00 +20°C° 0 mm 6 mps 752 mmHg 53%
    13:00 +21°C° 0 mm 6 mps 752 mmHg 51%
    14:00 +22°C° 0 mm 6 mps 751 mmHg 49%
    15:00 +22°C° 0 mm 6 mps 751 mmHg 51%
    16:00 +22°C° 0 mm 6 mps 751 mmHg 52%
    17:00 +22°C° 0 mm 5 mps 751 mmHg 53%
    18:00 +20°C° 0 mm 5 mps 751 mmHg 59%
    19:00 +18°C° 0 mm 4 mps 750 mmHg 64%
    20:00 +17°C° 0 mm 4 mps 750 mmHg 70%
    21:00 +15°C° 0.4 mm 4 mps 750 mmHg 74%
    22:00 +14°C° 0.4 mm 4 mps 750 mmHg 79%
    23:00 +13°C° 0.4 mm 4 mps 750 mmHg 83%

    Day after tomorrow, 26 April, Friday

    Time Temperature Precipitation Wind Pressure Humidity
    00:00 +12°C° 0.1 mm 4 mps 750 mmHg 85%
    01:00 +12°C° 0.1 mm 4 mps 750 mmHg 87%
    02:00 +11°C° 0.1 mm 4 mps 750 mmHg 89%
    03:00 +11°C° 0.2 mm 4 mps 749 mmHg 91%
    04:00 +11°C° 0.2 mm 4 mps 749 mmHg 92%
    05:00 +11°C° 0.2 mm 4 mps 749 mmHg 94%
    06:00 +12°C° 0 mm 4 mps 749 mmHg 90%
    07:00 +13°C° 0 mm 4 mps 749 mmHg 86%
    08:00 +15°C° 0 mm 5 mps 749 mmHg 82%
    09:00 +17°C° 0 mm 5 mps 748 mmHg 76%
    10:00 +20°C° 0 mm 5 mps 748 mmHg 70%
    11:00 +22°C° 0 mm 5 mps 748 mmHg 64%
    12:00 +22°C° 0.4 mm 6 mps 747 mmHg 61%
    13:00 +23°C° 0.4 mm 6 mps 747 mmHg 57%
    14:00 +24°C° 0.4 mm 6 mps 746 mmHg 54%
    15:00 +23°C° 0.6 mm 6 mps 746 mmHg 57%
    16:00 +23°C° 0.6 mm 5 mps 746 mmHg 60%
    17:00 +22°C° 0.6 mm 5 mps 745 mmHg 63%
    18:00 +21°C° 0.2 mm 5 mps 745 mmHg 67%
    19:00 +20°C° 0.2 mm 5 mps 745 mmHg 71%
    20:00 +19°C° 0.2 mm 5 mps 745 mmHg 74%
    21:00 +17°C° 0.6 mm 5 mps 744 mmHg 80%
    22:00 +17°C° 0.6 mm 4 mps 744 mmHg 85%
    23:00 +15°C° 0.6 mm 4 mps 744 mmHg 90%

    27 April, Saturday

    Time Temperature Precipitation Wind Pressure Humidity
    00:00 +14°C° 0 mm 4 mps 744 mmHg 91%
    01:00 +14°C° 0 mm 3 mps 744 mmHg 92%
    02:00 +13°C° 0 mm 3 mps 743 mmHg 93%
    03:00 +13°C° 0 mm 3 mps 743 mmHg 94%
    04:00 +13°C° 0 mm 3 mps 743 mmHg 94%
    05:00 +13°C° 0 mm 3 mps 743 mmHg 94%
    06:00 +14°C° 0 mm 3 mps 743 mmHg 87%
    07:00 +17°C° 0 mm 3 mps 743 mmHg 80%
    08:00 +18°C° 0 mm 4 mps 743 mmHg 74%
    09:00 +20°C° 0 mm 4 mps 743 mmHg 68%
    10:00 +21°C° 0 mm 5 mps 743 mmHg 62%
    11:00 +23°C° 0 mm 6 mps 743 mmHg 56%
    12:00 +23°C° 0 mm 6 mps 743 mmHg 56%
    13:00 +24°C° 0 mm 6 mps 743 mmHg 56%
    14:00 +24°C° 0 mm 6 mps 743 mmHg 55%
    15:00 +25°C° 0 mm 5 mps 743 mmHg 56%
    16:00 +23°C° 0 mm 5 mps 743 mmHg 58%
    17:00 +23°C° 0 mm 4 mps 743 mmHg 59%
    18:00 +21°C° 0 mm 3 mps 743 mmHg 66%
    19:00 +19°C° 0 mm 3 mps 743 mmHg 73%
    20:00 +18°C° 0 mm 2 mps 743 mmHg 80%
    21:00 +17°C° 0 mm 2 mps 743 mmHg 83%
    22:00 +16°C° 0 mm 2 mps 743 mmHg 85%
    23:00 +15°C° 0 mm 2 mps 743 mmHg 88%

    28 April, Sunday

    Time Temperature Precipitation Wind Pressure Humidity
    00:00 +15°C° 0 mm 2 mps 743 mmHg 89%
    01:00 +15°C° 0 mm 1 mps 743 mmHg 89%
    02:00 +15°C° 0 mm 1 mps 743 mmHg 90%
    03:00 +14°C° 0 mm 1 mps 743 mmHg 92%
    04:00 +13°C° 0 mm 1 mps 743 mmHg 93%
    05:00 +13°C° 0 mm 2 mps 743 mmHg 95%
    06:00 +14°C° 0 mm 2 mps 743 mmHg 89%
    07:00 +15°C° 0 mm 2 mps 744 mmHg 83%
    08:00 +16°C° 0 mm 2 mps 744 mmHg 78%
    09:00 +18°C° 0 mm 2 mps 744 mmHg 73%
    10:00 +19°C° 0 mm 2 mps 744 mmHg 68%
    11:00 +21°C° 0 mm 2 mps 744 mmHg 63%
    12:00 +21°C° 0 mm 2 mps 744 mmHg 62%
    13:00 +23°C° 0 mm 2 mps 744 mmHg 61%
    14:00 +23°C° 0 mm 2 mps 744 mmHg 60%
    15:00 +22°C° 0.8 mm 3 mps 743 mmHg 63%
    16:00 +21°C° 0.8 mm 3 mps 743 mmHg 66%
    17:00 +21°C° 0.8 mm 4 mps 743 mmHg 69%
    18:00 +20°C° 2.8 mm 4 mps 743 mmHg 74%
    19:00 +19°C° 2.8 mm 4 mps 744 mmHg 80%
    20:00 +17°C° 2.8 mm 4 mps 744 mmHg 85%
    21:00 +17°C° 0.5 mm 4 mps 744 mmHg 87%
    22:00 +17°C° 0.5 mm 4 mps 744 mmHg 88%
    23:00 +16°C° 0.5 mm 5 mps 745 mmHg 89%

    29 April, Monday

    Time Temperature Precipitation Wind Pressure Humidity
    00:00 +15°C° 0.2 mm 5 mps 745 mmHg 90%
    01:00 +15°C° 0.2 mm 6 mps 745 mmHg 92%
    02:00 +14°C° 0.2 mm 6 mps 745 mmHg 93%
    03:00 +12°C° 0.5 mm 7 mps 745 mmHg 92%
    04:00 +11°C° 0.5 mm 7 mps 746 mmHg 91%
    05:00 +11°C° 0.5 mm 7 mps 746 mmHg 90%
    06:00 +10°C° 0.5 mm 7 mps 747 mmHg 90%
    07:00 +9°C° 0.5 mm 7 mps 747 mmHg 89%
    08:00 +9°C° 0.5 mm 7 mps 747 mmHg 89%
    09:00 +9°C° 0.3 mm 7 mps 748 mmHg 87%
    10:00 +9°C° 0.3 mm 7 mps 748 mmHg 85%
    11:00 +9°C° 0.3 mm 7 mps 749 mmHg 83%
    12:00 +10°C° 0.1 mm 6 mps 749 mmHg 81%
    13:00 +10°C° 0.1 mm 6 mps 749 mmHg 79%
    14:00 +12°C° 0.1 mm 5 mps 749 mmHg 77%
    15:00 +13°C° 0 mm 5 mps 749 mmHg 74%
    16:00 +13°C° 0 mm 5 mps 749 mmHg 70%
    17:00 +14°C° 0 mm 5 mps 749 mmHg 66%
    18:00 +13°C° 0 mm 5 mps 750 mmHg 67%
    19:00 +12°C° 0 mm 5 mps 750 mmHg 67%
    20:00 +10°C° 0 mm 5 mps 750 mmHg 67%
    21:00 +9°C° 0 mm 5 mps 750 mmHg 66%
    22:00 +8°C° 0 mm 5 mps 751 mmHg 66%
    23:00 +7°C° 0 mm 5 mps 751 mmHg 65%
    Show more